[TLELIST] Archives

 

[TLELIST] Current TLEs

February 28th 2024 PDT

HST 1 20580U 90037B 24058.91845267 .00005717 00000-0 27910-3 0 9997 2 20580 28.4697 2.9831 0002569 274.3529 85.6769 15.16110385660273 ISS (ZARYA) 1 25544U 98067A 24059.38110244 .00017250 00000-0 31546-3 0 9990 2 25544 51.6398 139.5586 0005668 300.9145 182.9674 15.49450200441521 CXO 1 25867U 99040B 24059.44928820 .00001012 00000-0 00000+0 0 9990 2 25867 38.9769 164.9260 8975102 288.2572 0.3416 0.37814357 25308 ...Continue Reading

[TLELIST] Current TLEs

February 27th 2024 PDT

HST 1 20580U 90037B 24057.93104409 .00006592 00000-0 32336-3 0 9994 2 20580 28.4698 9.5813 0002619 261.9479 98.0816 15.16099923660128 ISS (ZARYA) 1 25544U 98067A 24058.40849753 .00041490 00000-0 74624-3 0 9993 2 25544 51.6398 144.3716 0005651 296.8323 158.3123 15.49405799441375 CXO 1 25867U 99040B 24059.44928820 .00001012 00000-0 00000+0 0 9990 2 25867 38.9769 164.9260 8975102 288.2572 0.3416 0.37814357 25308 ...Continue Reading

[TLELIST] Current TLEs

February 27th 2024 PDT

HST 1 20580U 90037B 24057.93104409 .00006592 00000-0 32336-3 0 9994 2 20580 28.4698 9.5813 0002619 261.9479 98.0816 15.16099923660128 ISS (ZARYA) 1 25544U 98067A 24058.40849753 .00041490 00000-0 74624-3 0 9993 2 25544 51.6398 144.3716 0005651 296.8323 158.3123 15.49405799441375 CXO 1 25867U 99040B 24059.44928820 .00001012 00000-0 00000+0 0 9990 2 25867 38.9769 164.9260 8975102 288.2572 0.3416 0.37814357 25308 ...Continue Reading

[TLELIST] Current TLEs

February 26th 2024 PDT

HST 1 20580U 90037B 24056.94362791 .00007131 00000-0 35069-3 0 9990 2 20580 28.4699 16.1799 0002611 250.8087 109.2223 15.16088924659977 ISS (ZARYA) 1 25544U 98067A 24057.44189117 .00023221 00000-0 42269-3 0 9999 2 25544 51.6422 149.1579 0005895 295.3005 164.7245 15.49371753441226 CXO 1 25867U 99040B 24056.80623026 .00000953 00000-0 00000-0 0 9991 2 25867 38.9421 165.1930 8979348 288.0527 0.5095 0.37813577 14131 ...Continue Reading

[TLELIST] Current TLEs

February 25th 2024 PDT

HST 1 20580U 90037B 24056.21951803 .00007052 00000-0 34682-3 0 9990 2 20580 28.4700 21.0188 0002619 242.2758 117.7569 15.16079770660120 ISS (ZARYA) 1 25544U 98067A 24056.34689676 .00028794 00000-0 52265-3 0 9999 2 25544 51.6416 154.5733 0005735 289.2367 179.2743 15.49326744441052 CXO 1 25867U 99040B 24056.80623026 .00000953 00000-0 00000-0 0 9991 2 25867 38.9421 165.1930 8979348 288.0527 0.5095 0.37813577 14131 ...Continue Reading

[TLELIST] Current TLEs

February 25th 2024 PDT

HST 1 20580U 90037B 24056.21951803 .00007052 00000-0 34682-3 0 9990 2 20580 28.4700 21.0188 0002619 242.2758 117.7569 15.16079770660120 ISS (ZARYA) 1 25544U 98067A 24056.34689676 .00028794 00000-0 52265-3 0 9999 2 25544 51.6416 154.5733 0005735 289.2367 179.2743 15.49326744441052 CXO 1 25867U 99040B 24056.80623026 .00000953 00000-0 00000-0 0 9991 2 25867 38.9421 165.1930 8979348 288.0527 0.5095 0.37813577 14131 ...Continue Reading

[TLELIST] Current TLEs

February 24th 2024 PDT

HST 1 20580U 90037B 24054.63962726 .00006191 00000-0 30350-3 0 9991 2 20580 28.4700 31.5763 0002645 224.1188 135.9193 15.16059691659628 ISS (ZARYA) 1 25544U 98067A 24055.31454875 -.00206501 00000-0 -38084-2 0 9994 2 25544 51.6395 159.6913 0005280 278.0474 188.7735 15.49214566440899 CXO 1 25867U 99040B 24056.80623026 .00000953 00000-0 00000-0 0 9991 2 25867 38.9421 165.1930 8979348 288.0527 0.5095 0.37813577 14131 ...Continue Reading

[TLELIST] Current TLEs

February 23rd 2024 PDT

HST 1 20580U 90037B 24053.65218573 .00006002 00000-0 29400-3 0 9991 2 20580 28.4700 38.1747 0002698 213.1950 146.8473 15.16047968659475 ISS (ZARYA) 1 25544U 98067A 24054.33494424 .00018013 00000-0 31983-3 0 9998 2 25544 51.6411 164.5373 0002036 314.9686 82.1277 15.50270617440747 CXO 1 25867U 99040B 24056.80623026 .00000953 00000-0 00000-0 0 9991 2 25867 38.9421 165.1930 8979348 288.0527 0.5095 0.37813577 14131 ...Continue Reading

[TLELIST] Current TLEs

February 23rd 2024 PDT

HST 1 20580U 90037B 24053.65218573 .00006002 00000-0 29400-3 0 9991 2 20580 28.4700 38.1747 0002698 213.1950 146.8473 15.16047968659475 ISS (ZARYA) 1 25544U 98067A 24054.33494424 .00018013 00000-0 31983-3 0 9998 2 25544 51.6411 164.5373 0002036 314.9686 82.1277 15.50270617440747 CXO 1 25867U 99040B 24056.80623026 .00000953 00000-0 00000-0 0 9991 2 25867 38.9421 165.1930 8979348 288.0527 0.5095 0.37813577 14131 ...Continue Reading

[TLELIST] Current TLEs

February 22nd 2024 PDT

HST 1 20580U 90037B 24053.19137722 .00005941 00000-0 29098-3 0 9990 2 20580 28.4700 41.2541 0002713 208.5784 151.4660 15.16042332659664 ISS (ZARYA) 1 25544U 98067A 24053.50416726 .00015852 00000-0 28281-3 0 9990 2 25544 51.6408 168.6555 0002154 305.6979 131.8336 15.50237107440614 CXO 1 25867U 99040B 24054.16120892 .00000889 00000-0 00000+0 0 9998 2 25867 38.9006 165.4810 8982588 287.8279 0.4397 0.37807402 25283 ...Continue Reading
  • This mailing list is a public mailing list - anyone may join or leave, at any time.
  • This mailing list is announce-only.

International Space Station (ISS) / Hubble Space Telescope (HST) / Chandra X-Ray Observatory Orbital Data via EMAIL

Privacy Policy:

Private list